Meteo Giornale » Osservazioni meteo Svizzera » Alpnach

ore: 14:20 - Osservazioni Meteo Alpnach
Lat. 46° 57' N Lon. 8° 17' E Alt. 444 metri s.l.m.

coperto Europe/Zurich

22 °C

Coperto

Temp. 24 Ore

17 °C

30 °C

Est/Nord-Est

11.1 Km/h

Dew point 17 °C

Umidità 73 %

Visibilità  10 Km

Il sole sorge alle ore 06:28

Il sole tramonta alle ore 20:32

Data e Ora Cielo e Fenomeni T °C DP °C Um. % Pres. hPa Vis. km Vento km/h
Oggi h: 14:20 coperto Coperto 22 17 73 1019 10 E/NE 11.1
Oggi h: 13:50 molto_nuvoloso Molto Nuvoloso 22 17 73 1019 10 E/NE 16.7
Oggi h: 13:20 molto_nuvoloso Molto Nuvoloso 21 16 73 1019 10 E/NE 14.8
Oggi h: 12:50 poco_nuvoloso Poco Nuvoloso 21 15 68 1019 10 N 1.8
Oggi h: 12:20 nuvoloso Nuvoloso 20 16 77 1019 10 N 3.7
Oggi h: 11:50 molto_nuvoloso Molto Nuvoloso 20 15 72 1019 10 N 1.8
Oggi h: 11:20 molto_nuvoloso Molto Nuvoloso 19 16 82 1019 10 N 0
Oggi h: 10:20 coperto Coperto 18 16 88 1019 10 N 3.7
Oggi h: 09:50 coperto Coperto 18 16 88 1019 10 N 3.7
Oggi h: 09:20 molto_nuvoloso Molto Nuvoloso 18 15 82 1018 10 N 3.7
Oggi h: 08:50 molto_nuvoloso Molto Nuvoloso 17 16 93 1018 10 SO 7.4
Oggi h: 08:20 molto_nuvoloso Molto Nuvoloso 17 16 93 1018 10 N 1.8
Oggi h: 07:50 molto_nuvoloso Molto Nuvoloso 17 16 93 1018 10 N 3.7
Oggi h: 07:20 coperto_pioggia Pioggia Debole 17 16 93 1018 10 N 3.7
Oggi h: 06:50 coperto_pioggia Pioggia Debole 17 16 93 1019 10 N 5.5
Oggi h: 06:20 nuvoloso_piovaschi Rovescio di Pioggia 18 16 88 1019 10 O/SO 7.4
Oggi h: 05:50 nuvoloso_piovaschi Rovescio di Pioggia 18 17 93 1018 5 S 13
Oggi h: 05:20 nuvoloso_piovaschi Debole Rovescio di Pioggia 18 17 93 1017 10 N 5.5
Oggi h: 04:50 molto_nuvoloso Molto Nuvoloso 18 17 93 1017 10 N 5.5
Oggi h: 04:20 coperto Coperto 18 16 88 1017 10 O 9.3
Oggi h: 03:50 coperto_pioggia Pioggia 18 16 88 1017 10 S/SO 7.4
Oggi h: 03:20 coperto_pioggia Pioggia 18 16 88 1018 8 O 7.4
Oggi h: 02:50 coperto_pioggia Pioggia 18 17 93 1019 9 S 7.4
Oggi h: 02:20 coperto_pioggia Pioggia Debole 18 17 93 1019 10 N 1.8
Oggi h: 01:50 nuvoloso_piovaschi Debole Rovescio di Pioggia 19 17 88 1018 10 O/SO 7.4
Oggi h: 01:20 nuvoloso_piovaschi Rovescio di Pioggia 19 16 82 1017 8 SO 14.8
Oggi h: 00:50 nuvoloso_piovaschi Rovescio di Pioggia 21 16 73 1017 10 S/SO 16.7
Oggi h: 00:20 molto_nuvoloso Molto Nuvoloso 20 19 93 1015 10 S/SO 9.3
Ieri h: 23:50 nuvoloso_piovaschi Rovescio di Pioggia 20 19 93 1014 10 N 3.7
Ieri h: 22:50 nuvoloso_piovaschi Debole Rovescio di Pioggia 22 19 83 1013 10 N 3.7
Ieri h: 22:20 coperto_pioggia Pioggia 22 19 83 1013 3 N 5.5
Ieri h: 21:50 molto_nuvoloso Molto Nuvoloso 24 18 69 1012 10 N 0
Ieri h: 21:20 molto_nuvoloso Molto Nuvoloso 24 18 69 1012 6 N 3.7
Ieri h: 20:50 molto_nuvoloso Molto Nuvoloso 26 17 57 1011 10 E/NE 9.3
Ieri h: 20:20 molto_nuvoloso Molto Nuvoloso 25 18 65 1011 10 N/NE 9.3
Ieri h: 19:50 poco_nuvoloso Poco Nuvoloso 27 18 57 1011 10 N 3.7
Ieri h: 19:20 poco_nuvoloso Poco Nuvoloso 28 18 54 1011 10 N 3.7
Ieri h: 18:50 poco_nuvoloso Poco Nuvoloso 29 18 51 1011 10 N 5.5
Ieri h: 17:20 poco_nuvoloso Poco Nuvoloso 30 18 48 1011 10 N 3.7
Ieri h: 16:50 poco_nuvoloso Poco Nuvoloso 29 18 51 1011 10 N 11.1